Weather History for Asheville, NC

Change the Weather History Date:

Thursday, October 9, 2008

  Actual Average Record
Temperature  
Mean Temperature 65 °F 58 °F  
Max Temperature 73 °F 70 °F 85 °F (1939)
Min Temperature 57 °F 47 °F 27 °F (1889)
Degree Days  
Heating Degree Days 0 7  
Month to date heating degree days 66 53  
Since 1 July heating degree days 102 110  
Cooling Degree Days 0 0  
Month to date cooling degree days 0 7  
Year to date cooling degree days 873 859  
Growing Degree Days 14 (Base 50)    
Moisture  
Dew Point 58 °F    
Average Humidity 83    
Maximum Humidity 100    
Minimum Humidity 66    
Precipitation  
Precipitation 0.00 in 0.09 in 1.74 in (1908)
Month to date precipitation 0.55 0.91  
Year to date precipitation 27.99 36.33  
Snow  
Snow 0.00 in 0.00 in 0.00 in ()
Month to date snowfall 0.0 0.0  
Since 1 July snowfall 0.0 0.0  
Since 1 September snowfall 0.0 0.0  
Snow Depth -    
Sea Level Pressure  
Sea Level Pressure 30.03 in    
Wind  
Wind Speed 2 mph (NNW)    
Max Wind Speed 10 mph    
Max Gust Speed 14 mph    
Visibility 9 miles    
Events      
T = Trace of Precipitation, MM = Missing Value Source: NWS Daily Summary

Daily Weather History Graph

Daily Weather History Graph

Search for Another Location

Airport:

Trip Planner

Search our weather history database for the weather conditions in past years. The results will help you decide how hot, cold, wet, or windy it might be!

Date:

Astronomy

Oct. 09, 2008 Rise Set
Actual Time 7:31 AM EDT 7:02 PM EDT
Civil Twilight 7:06 AM EDT 7:27 PM EDT
Nautical Twilight 6:36 AM EDT 7:57 PM EDT
Astronomical Twilight 6:07 AM EDT 8:26 PM EDT
Moon 4:12 PM EDT (10/9) 1:57 AM EDT (10/9)
Length of Visible Light 12h 21m
Length of Day
11h 30m
Waxing Gibbous, 72% of the Moon is Illuminated
Oct 9
Waxing Gibbous
Oct 14
Full
Oct 21
Last Quarter
Oct 28
New
Nov 5
First Quarter

Hourly Weather History & Observations

Time (EDT) Temp. Dew Point Humidity Pressure Visibility Wind Dir Wind Speed Gust Speed Precip Events Conditions
12:16 AM 59.0 °F 57.2 °F 94% 30.04 in 10.0 mi Calm Calm - N/A   Overcast
12:24 AM 59.0 °F 57.2 °F 94% 30.03 in 10.0 mi Calm Calm - N/A   Overcast
12:54 AM 59.0 °F 57.9 °F 96% 29.99 in 10.0 mi Calm Calm - N/A   Overcast
1:24 AM 59.0 °F 57.2 °F 94% 30.03 in 10.0 mi NNW 4.6 mph - N/A   Overcast
1:54 AM 59.0 °F 57.9 °F 96% 29.98 in 10.0 mi North 4.6 mph - N/A   Overcast
2:54 AM 59.0 °F 57.9 °F 96% 29.98 in 10.0 mi Calm Calm - N/A   Scattered Clouds
3:11 AM 57.2 °F 57.2 °F 100% 30.02 in 10.0 mi Calm Calm - N/A   Scattered Clouds
3:54 AM 57.9 °F 57.9 °F 100% 29.97 in 10.0 mi Calm Calm - N/A   Overcast
4:36 AM 57.2 °F 57.2 °F 100% 30.01 in 10.0 mi NW 4.6 mph - N/A   Mostly Cloudy
4:54 AM 57.9 °F 57.0 °F 97% 29.98 in 10.0 mi NNW 3.5 mph - N/A   Overcast
5:18 AM 57.2 °F 57.2 °F 100% 30.01 in 10.0 mi North 8.1 mph - N/A   Mostly Cloudy
5:44 AM 57.2 °F 57.2 °F 100% 30.01 in 10.0 mi North 6.9 mph - N/A   Mostly Cloudy
5:54 AM 57.9 °F 57.0 °F 97% 29.98 in 10.0 mi Calm Calm - N/A   Overcast
6:17 AM 57.2 °F 57.2 °F 100% 30.02 in 10.0 mi Calm Calm - N/A   Mostly Cloudy
6:54 AM 57.0 °F 57.0 °F 100% 30.00 in 6.0 mi Calm Calm - N/A   Scattered Clouds
7:54 AM 57.9 °F 57.0 °F 97% 30.02 in 2.0 mi Calm Calm - N/A   Mostly Cloudy
8:01 AM 57.2 °F 57.2 °F 100% 30.06 in 6.0 mi WNW 3.5 mph - N/A   Overcast
8:22 AM 57.2 °F 57.2 °F 100% 30.06 in 8.0 mi NNW 3.5 mph - N/A   Overcast
8:54 AM 59.0 °F 57.0 °F 93% 30.03 in 9.0 mi NNW 4.6 mph - N/A   Mostly Cloudy
8:58 AM 59.0 °F 57.2 °F 94% 30.07 in 2.0 mi NNW 4.6 mph - N/A   Mostly Cloudy
9:54 AM 61.0 °F 57.9 °F 90% 30.04 in 2.0 mi NE 3.5 mph - N/A   Mostly Cloudy
10:01 AM 60.8 °F 57.2 °F 88% 30.08 in 10.0 mi Calm Calm - N/A   Mostly Cloudy
10:54 AM 64.0 °F 59.0 °F 84% 30.04 in 3.0 mi NNE 5.8 mph - N/A   Haze
10:59 AM 64.4 °F 59.0 °F 83% 30.09 in 5.0 mi Variable 4.6 mph - N/A   Haze
11:54 AM 66.0 °F 59.0 °F 78% 30.03 in 5.0 mi Calm Calm - N/A   Haze
12:54 PM 69.1 °F 59.0 °F 70% 30.01 in 10.0 mi Calm Calm - N/A   Scattered Clouds
1:06 PM 69.8 °F 60.8 °F 73% 30.07 in 10.0 mi Variable 3.5 mph - N/A   Mostly Cloudy
1:54 PM 71.1 °F 60.1 °F 68% 30.00 in 10.0 mi NW 4.6 mph - N/A   Mostly Cloudy
2:33 PM 71.6 °F 59.0 °F 64% 30.04 in 10.0 mi Calm Calm - N/A   Overcast
2:44 PM 71.6 °F 60.8 °F 69% 30.04 in 10.0 mi Calm Calm - N/A   Overcast
2:54 PM 70.0 °F 57.9 °F 65% 29.98 in 10.0 mi Variable 3.5 mph - N/A   Mostly Cloudy
3:06 PM 69.8 °F 59.0 °F 68% 30.04 in 10.0 mi SE 6.9 mph - N/A   Mostly Cloudy
3:54 PM 72.0 °F 59.0 °F 64% 29.98 in 10.0 mi Variable 3.5 mph - N/A   Mostly Cloudy
4:12 PM 71.6 °F 59.0 °F 64% 30.03 in 10.0 mi Variable 4.6 mph - N/A   Mostly Cloudy
4:41 PM 71.6 °F 59.0 °F 64% 30.03 in 10.0 mi Variable 3.5 mph - N/A   Overcast
4:54 PM 71.1 °F 59.0 °F 66% 29.98 in 10.0 mi Variable 3.5 mph - N/A   Overcast
5:38 PM 69.8 °F 60.8 °F 73% 30.04 in 10.0 mi SSE 6.9 mph - N/A   Mostly Cloudy
5:54 PM 68.0 °F 60.1 °F 76% 30.00 in 10.0 mi South 10.4 mph - N/A   Overcast
6:54 PM 66.9 °F 60.1 °F 79% 30.02 in 10.0 mi Calm Calm - N/A   Overcast
7:46 PM 64.4 °F 59.0 °F 83% 30.07 in 10.0 mi Calm Calm - N/A   Mostly Cloudy
7:54 PM 64.9 °F 59.0 °F 81% 30.03 in 10.0 mi Variable 3.5 mph - N/A   Overcast
8:54 PM 64.0 °F 59.0 °F 84% 30.05 in 10.0 mi Calm Calm - N/A   Overcast
9:54 PM 62.1 °F 59.0 °F 90% 30.06 in 10.0 mi Calm Calm - N/A   Scattered Clouds
10:54 PM 60.1 °F 57.9 °F 93% 30.07 in 10.0 mi Calm Calm - N/A   Clear
11:54 PM 57.9 °F 57.0 °F 97% 30.06 in 10.0 mi Calm Calm - N/A   Clear